Location: Gwatt
(46.7204°N, 7.6223°E)
Time: 17:03:47
(UTC+00:00)

Exosat Rocket - Pass Details

Date: 18 September 2020
Orbit: 760 x 2514 km, 72.3° (Epoch: 30 October)

Event Time Altitude Azimuth Distance (km) Brightness Sun altitude
Rises 18:58:11 0° 176° (S) 3,753 6.8 -14.9°
Reaches altitude 10° 19:01:12 10° 166° (SSE) 2,617 5.9 -15.4°
Maximum altitude 19:06:10 31° 106° (ESE) 1,381 4.2 -16.2°
Drops below altitude 10° 19:10:34 10° 44° (NE) 2,306 5.8 -16.9°
Sets 19:13:03 0° 34° (NNE) 3,238 6.6 -17.3°
